Lapse_Rate
7.4 7.2 7.1 6.9 6.7 6.7 6.7 6.6 6.5 6.3 6.1 6.2 6.3 6.3 6.3 6.5 6.3 6.2 6.1 6.2 6.2 6.2 6.2 6.0 5.9 5.9 6.0 6.0 6.0 6.1 6.0 6.1 6.1
7.1 7.0 6.9 6.9 7.0 6.8 6.6 6.7 6.6 6.4 6.3 6.4 6.3 6.3 6.2 6.2 6.3 6.5 6.5 6.2 6.2 6.2 6.2 6.1 6.0 6.1 6.2 6.2 6.3 6.2 6.2 6.0 5.9
7.1 7.1 6.9 6.4 6.7 7.0 7.0 7.1 7.0 6.7 6.5 6.3 6.1 6.1 6.3 6.0 5.9 6.0 6.3 6.4 6.5 6.3 6.1 6.1 6.1 6.1 6.0 6.0 6.2 6.4 6.4 6.3 6.2
7.2 7.1 6.6 6.7 6.6 6.6 6.6 6.8 7.1 7.3 6.9 6.7 6.4 6.0 6.2 6.1 6.1 6.0 6.0 6.1 6.4 6.5 6.5 6.2 5.9 6.1 5.9 5.7 5.7 6.0 6.0 6.2 6.1
7.6 7.4 7.2 7.1 6.9 6.9 6.7 6.7 6.5 6.6 6.7 6.8 6.7 6.7 7.0 6.7 6.3 6.3 6.4 6.2 6.2 6.4 6.5 6.4 6.3 6.0 5.8 5.9 5.9 5.6 5.8 6.0 6.1
7.9 7.9 7.8 7.6 7.4 7.4 7.3 6.7 6.2 6.0 6.3 6.4 6.5 6.7 6.8 6.8 6.8 6.5 6.5 6.5 6.2 6.1 6.3 6.5 6.3 6.1 6.0 5.6 5.5 5.6 5.8 6.0 5.8
7.8 7.8 7.6 7.3 7.2 6.9 6.8 6.6 6.5 6.3 6.0 6.0 6.2 6.3 6.4 6.4 6.4 6.5 6.3 6.2 6.5 6.4 6.2 6.2 6.4 6.3 6.0 5.8 5.6 5.7 5.8 6.0 5.8
7.6 7.5 7.3 7.4 7.1 6.7 6.4 6.2 6.1 6.1 6.0 5.9 5.8 5.8 5.9 6.1 5.9 6.2 6.4 6.2 6.2 6.2 6.3 6.3 5.8 6.1 6.3 6.1 6.0 6.1 5.9 5.9 6.1
7.1 6.5 6.6 6.8 6.4 6.2 6.2 6.1 6.0 5.9 5.7 5.6 5.7 5.5 5.6 5.6 5.7 5.7 6.0 6.4 6.5 6.0 6.4 6.4 6.5 6.3 6.2 6.3 6.1 6.3 6.3 6.2 6.2
6.1 6.0 5.6 5.4 5.4 5.3 5.2 5.4 5.6 5.8 5.9 5.7 5.5 5.4 5.3 5.2 5.5 5.6 5.9 6.0 6.5 6.9 6.3 6.3 6.4 6.5 6.2 6.4 6.4 6.3 6.2 6.2 6.2
6.1 5.8 5.2 4.9 4.7 4.5 4.6 4.7 5.3 5.5 5.4 5.4 5.4 5.4 5.4 5.6 5.9 6.2 6.4 6.4 6.3 6.3 6.6 6.7 6.6 6.8 6.6 6.3 6.4 6.4 6.3 6.0 6.2
5.6 5.2 5.0 4.8 4.8 4.9 5.0 5.1 5.0 5.1 5.3 5.4 5.6 5.7 5.7 6.0 6.3 6.4 6.6 6.8 6.7 6.6 6.5 6.7 6.6 6.5 6.9 6.7 6.5 6.3 6.4 6.2 6.0
5.4 5.5 5.3 5.3 5.3 5.4 5.1 4.8 4.5 4.5 4.9 5.4 5.5 6.0 6.6 6.7 6.6 6.7 6.8 6.9 6.9 6.8 6.7 6.7 6.8 6.9 6.6 6.9 6.9 6.5 6.3 6.1 6.2
5.8 5.6 5.7 5.4 5.1 4.8 4.8 4.8 4.9 5.0 5.1 5.2 5.1 5.7 6.2 6.8 7.0 7.0 6.9 6.8 6.8 6.7 6.8 6.7 6.7 6.8 6.9 6.8 6.8 6.6 6.5 6.1 5.6
6.1 5.9 5.6 5.3 5.1 5.1 5.2 5.2 5.1 5.0 5.0 5.3 5.6 6.0 6.2 6.1 6.1 6.2 6.3 6.4 6.5 6.6 6.6 6.6 6.5 6.7 6.6 6.7 7.0 6.4 5.6 5.1 5.5
5.7 5.3 5.2 5.2 5.1 5.3 5.4 5.3 5.2 5.2 5.4 5.4 5.6 5.9 5.7 5.7 5.6 5.9 5.9 5.9 6.1 6.3 6.4 6.5 6.5 6.5 6.6 6.6 6.6 6.1 5.6 5.6 5.2
5.3 5.2 5.3 5.4 5.5 5.7 5.7 5.4 5.3 5.2 5.1 5.3 5.8 5.8 5.8 5.7 5.6 5.8 5.8 5.9 5.9 6.1 6.3 6.5 6.4 6.2 6.1 6.2 6.3 6.2 6.2 6.2 5.9
5.6 5.6 5.7 5.6 5.6 5.6 5.5 5.4 5.3 5.2 5.2 5.6 5.8 5.7 5.8 5.7 5.4 5.5 5.7 5.8 5.9 5.9 6.2 6.2 6.2 5.9 5.7 5.8 6.1 6.3 6.2 6.4 6.1
5.6 5.7 5.6 5.6 5.4 5.1 5.0 4.9 5.1 5.2 5.5 5.6 5.6 5.6 5.7 5.6 5.5 5.5 5.6 5.7 5.8 5.7 6.0 6.1 5.8 5.7 5.5 5.8 6.0 6.1 6.3 6.3 6.0
5.6 5.4 5.2 4.8 4.8 4.8 4.8 5.1 5.3 5.4 5.7 5.7 5.6 5.5 5.6 5.6 5.4 5.6 5.7 5.7 5.7 6.1 5.9 5.9 6.0 5.9 5.6 5.8 5.8 5.9 6.1 5.9 5.4
Wind_Speed
7 6 8 9 10 8 11 12 13 13 13 12 11 10 9 7 8 5 5 6 5 5 5 5 5 6 5 7 7 6 5 3 4
6 4 2 7 6 5 7 13 14 15 14 12 12 11 9 8 7 7 7 7 6 6 5 4 5 5 6 5 5 6 5 4 5
9 10 13 11 9 7 4 3 5 10 13 14 13 11 9 9 10 9 7 6 8 7 7 7 7 7 6 5 6 6 6 5 6
8 10 8 8 7 8 9 7 3 6 6 7 8 9 9 7 8 8 8 7 7 7 6 8 9 9 10 6 6 6 6 6 7
7 7 7 7 6 7 8 8 8 6 5 5 5 6 7 9 7 9 10 10 9 7 7 7 9 9 8 7 8 7 6 7 8
8 6 7 7 7 6 6 7 6 6 6 6 5 4 6 8 11 12 12 12 11 9 7 8 8 7 8 8 9 7 7 7 7
8 7 7 5 6 5 5 5 4 5 5 4 4 5 3 3 7 9 9 9 10 11 9 10 10 9 10 9 8 8 7 8 9
8 7 6 4 5 6 4 4 4 4 4 4 2 4 5 4 4 4 6 8 8 5 6 9 11 11 10 9 8 9 11 10 9
7 6 5 3 3 3 5 4 3 2 2 2 2 1 4 6 6 5 4 6 9 8 14 10 9 12 12 12 10 14 15 13 10
7 6 4 2 4 4 3 3 3 4 5 4 4 4 5 5 5 6 6 5 5 10 11 10 9 12 12 13 14 16 17 17 10
6 4 2 1 1 3 5 4 5 5 6 6 5 6 7 7 7 7 6 4 5 5 5 9 10 11 14 14 14 16 16 18 12
3 2 2 3 3 3 5 5 7 6 7 7 6 7 7 7 7 7 6 6 5 5 5 5 7 8 12 14 15 16 18 14 8
7 6 2 3 5 4 6 7 6 5 6 5 7 7 8 8 7 7 8 7 7 5 5 6 5 8 9 15 15 15 18 16 9
3 3 6 5 6 4 5 6 5 6 7 7 8 7 8 7 7 7 8 9 5 5 6 5 6 8 5 7 4 2 4 4 3
7 7 6 5 4 6 7 7 6 7 8 10 10 11 9 9 11 9 6 9 7 6 6 6 5 4 5 3 6 12 8 6 8
6 6 6 4 5 6 6 7 6 7 11 11 12 11 12 12 11 11 8 7 8 7 6 6 7 5 6 6 5 5 16 16 17
6 6 5 5 7 7 9 8 7 7 11 12 11 12 13 10 10 13 10 5 7 8 6 6 7 7 7 7 6 7 8 8 10
6 6 7 7 6 8 11 11 10 12 12 11 12 12 11 11 10 11 10 7 8 8 9 9 8 8 8 7 6 10 12 11 8
4 7 6 7 7 9 12 12 12 12 14 12 10 12 10 9 9 8 8 7 7 11 15 16 16 19 12 9 13 11 15 13 13
6 6 7 7 9 11 12 11 9 13 13 15 13 11 13 9 9 8 8 8 7 9 8 11 13 13 17 17 18 13 12 15 15
Wind_Direction
197 238 226 222 212 193 188 199 186 181 184 189 187 189 190 188 185 189 199 191 192 213 202 211 218 211 207 209 196 203 195 199 223
71 131 268 229 276 271 218 188 183 184 186 191 193 193 192 189 190 193 199 200 199 205 217 210 195 190 211 227 211 207 209 219 227
65 66 57 55 38 10 257 293 205 188 191 193 191 191 196 200 193 196 202 199 209 205 209 197 195 188 177 198 216 214 196 223 246
65 61 59 51 46 31 42 49 128 188 191 187 196 193 195 193 199 203 203 201 212 209 204 198 203 218 224 206 201 211 203 216 230
78 80 70 67 43 37 36 44 36 29 187 195 206 202 197 198 199 203 210 216 216 202 210 202 204 204 211 199 200 206 201 220 219
107 105 92 79 64 59 56 46 37 37 46 58 41 347 226 209 208 207 214 221 217 202 186 208 211 198 209 210 210 208 211 218 212
113 101 85 61 63 72 60 70 62 48 53 49 31 44 35 282 256 234 231 238 216 217 194 192 209 212 209 211 209 215 213 217 216
128 118 94 71 39 6 22 32 37 59 54 38 47 24 357 316 272 277 246 233 236 227 224 215 202 210 218 219 212 215 218 213 209
133 124 122 116 63 346 345 324 348 360 357 343 4 7 304 302 296 295 303 238 227 223 216 222 199 206 211 217 225 221 208 206 214
123 136 128 46 356 7 332 282 229 271 271 284 315 311 305 295 289 274 270 285 244 244 242 233 230 226 216 215 218 216 210 207 214
101 111 82 33 219 265 261 248 264 261 253 262 269 280 290 295 300 298 292 268 283 271 242 248 236 235 232 225 226 213 212 213 213
133 168 217 239 308 293 330 332 311 311 309 303 287 268 266 270 278 283 284 281 252 262 273 262 246 237 232 226 234 215 212 207 205
29 34 24 26 5 2 1 327 314 305 292 293 282 269 265 265 263 266 274 260 256 238 235 257 267 273 260 234 233 225 218 210 217
36 13 5 11 14 6 318 316 334 321 310 296 280 281 274 267 256 254 263 270 234 231 247 250 257 272 275 272 283 358 246 209 239
19 21 359 350 345 320 307 305 311 301 295 292 288 286 274 275 279 277 258 258 260 237 231 244 236 225 263 221 161 152 117 127 154
4 351 338 333 327 303 294 296 293 292 296 296 285 279 280 275 271 271 261 247 260 255 219 226 234 224 248 252 217 184 194 179 170
350 340 332 317 324 326 314 307 287 277 291 294 286 279 279 272 270 274 270 237 244 250 240 225 232 229 231 245 196 213 214 229 213
326 324 323 324 316 316 307 303 297 301 298 295 291 287 279 277 274 271 273 251 245 239 243 230 232 232 229 225 215 224 215 205 226
325 326 319 321 312 309 301 303 302 310 310 295 295 299 287 275 271 269 265 268 272 246 247 250 235 240 233 242 233 192 196 193 170
309 307 300 296 305 309 307 298 316 320 321 321 305 302 295 283 268 267 265 264 263 272 275 242 255 240 243 241 248 191 195 183 186